STARLINK-35266, 65804

Orbit data source: Space-Track

STARLINK-35266, 65804 is a payload satellite owned by SpaceX/Seattle (US) in SSO that was launched on Fri, 26 Sep 2025 UTC via an FALCON 9 launch vehicle from the Air Force Western Test Range (AFWTR). Payload-class satellites include a variety of spacecraft equipped with specific instruments for various scientific and technological missions. These include communications satellites like Starlink; space stations such as the ISS; scientific satellites like the Hubble; Earth observation satellites from companies like Planet Labs, Umbra, and HawkEye 360; GPS; miniature CubeSats for education and research; and military/defense satellites.

Loading next visibility...
Identifier
65804, 2025-218P
Orbit
SSO
Country
Flag of USUS
Related business
Manufacturer
SpaceX/Seattle
Mission
Operational Commercial Communications
Bus & Motor
STARLINK V2MO, Unknown motor
Mass
575 kg wet, ~530 kg dry
Launch date (UTC)
2025-09-26 (1 month ago)
Launch vehicle
FALCON 9
Launch site
Air Force Western Test Range (AFWTR)
Object type
Payload
Rocket body
Debris
Shape & HBR
Box + 2 Pan, 17.7 m
Radar Cross Section
36.964 m²

Expand to show TLE details & history
Last TLE update: 2 days ago

TLE from 2 days ago
0 STARLINK-35266
1 65804U 25218P   25312.83335647 -.00025473  00000-0 -17670-2 0  9999
2 65804  97.6025 173.7837 0001001  92.1965 201.4690 15.05660524  5915
Epoch: 2025-11-08T20:00Z
TLE epoch observation values (Epoch: 2025-11-08T20:00:01.999Z)
Latitude
-65.39796°
Longitude
-157.62924°
Altitude
575.024 km
Speed
7.572 km/s
True Right ascension
12h 42m 32s
True Declination
-65° 15' 51"
Sunlit
Object was in daylight at epoch
Visualization orbit readout
Latitude
Unknown
Longitude
Unknown
Altitude
Unknown
Speed
Unknown
Apparent Right ascension
Unknown
Apparent Declination
Unknown
Sunlit
N/A
Visualization observer readout
Local Sidereal Time
04:26:51
Azimuth
Unknown
Elevation
Unknown
Doppler factor
Unknown
Orbital elements
Apogee altitude
547.165 km
Perigee altitude
545.779 km
Semi-major axis
6,924.609 km
Eccentricity
0.0001
Inclination
97.6025°
RAAN
173.7837°
Arg. of periapsis
92.1965°
True anomaly
201.4648°
Mean anomaly
201.469°
Eccentric anomaly
201.4669°
Mean motion
3.76661 °/min
Orbital period
95.58 mins
BSTAR
-0.001767
Loading maneuver chart data...
Computing Atmospheric mass density...
Loading historical data...
Loading historical data...
Loading historical data...
Loading historical data...
Loading historical data...
Loading historical data...
Loading historical data...

Documentation

Showing up to 5 results
|